Location: Helsinki
(60.1699°N, 24.9384°E)
Time: 21:47:58
(UTC+02:00)

Transit 2A Rocket - Pass Details

Date: 27 September 2023
Orbit: 593 x 903 km, 66.7° (Epoch: 29 November)

Event Time Altitude Azimuth Distance (km) Brightness Sun altitude
Rises 19:09:33 0° 275° (W) 3,179 11.1 -1.3°
Reaches altitude 10° 19:12:10 10° 283° (WNW) 2,202 9.2 -1.6°
Maximum altitude 19:16:50 39° 352° (N) 1,015 5.8 -2.2°
Drops below altitude 10° 19:21:09 10° 62° (ENE) 2,037 6.7 -2.7°
Enters shadow 19:23:04 - 69° (ENE) 2,752 7.3 -3.0°
Sets 19:23:29 0° 71° (ENE) 2,911 - -3.0°
